Location: Aurora Center
(43.5271°N, 98.5894°W)
Time: 00:39:18
(UTC-05:00)

BlueWalker 3 - Pass Details

Date: 25 June 2024
Orbit: 480 x 492 km, 53.2° (Epoch: 15 July)

Event Time Altitude Azimuth Distance (km) Brightness Sun altitude
Rises 03:02:28 0° 303° (WNW) 2,538 5.7 -20.3°
Reaches altitude 10° 03:04:39 10° 299° (WNW) 1,656 4.6 -20.1°
Enters shadow 03:07:17 40° 275° (W) 725 2.5 -20.0°
